Flag for Brazil Weather past 2 weeks in Manaus, Amazonas, Brazil

Now
73 °F

Clear.


Feels Like: 72 °F
Forecast: 75 / 87 °F
Wind: 6 mph from East

Location: Manaus Aeroporto

Current Time: May 4, 2015 at 5:07:50 AM

Latest Report: May 4, 2015 at 4:00 AM


Visibility: 10 mi

Pressure: 29.83 "Hg

Humidity: 89%

Dew point: 70 °F

Location of ManausLocation

Historic Weather in Manaus — Graph

°F

Manaus temperature yesterday

Maximum temperature yesterday: 86 °F (at 1:00 PM)
Minimum temperature yesterday: 73 °F (at 4:00 AM)
Average temperature yesterday: 79 °F

Past Weeks' High & Low Weather Summary

 TemperatureHumidityPressure
High90 °F (Apr 21, 3:00 PM)94% (Apr 19, 4:00 AM)29.98 "Hg (Apr 19, 4:00 AM)
Low73 °F (Apr 24, 1:00 AM)52% (Apr 21, 3:00 PM)29.74 "Hg (Apr 20, 3:00 PM)
Average80 °F83%29.86 "Hg
* Reported Apr 19 4:00 AM — May 4 4:00 AM, Manaus, Weather by CustomWeather, © 2015

Note: Actual official high and low records may vary slightly from our data, if they occured in-between our weather recording intervals... More about our weather records

Advertising

Manaus weather history for previous 24 hours

 ConditionsComfort  
Time TempWeatherWind HumidityBarometerVisibility
4:00 AM
Mon, May 4
73 °FClear.6 mph89%29.83 "Hg10 mi
3:00 AM75 °FClear.7 mph83%29.83 "Hg10 mi
2:00 AM75 °FClear.5 mph83%29.86 "Hg10 mi
1:00 AM75 °FClear.5 mph83%29.86 "Hg10 mi
12:00 AM77 °FClear.7 mph83%29.89 "Hg10 mi
11:00 PM
Sun, May 3
77 °FClear.8 mph79%29.89 "Hg10 mi
10:00 PM77 °FClear.21 mph83%29.89 "Hg10 mi
9:00 PM79 °FPassing clouds.7 mph79%29.86 "HgN/A
8:00 PM79 °FPassing clouds.7 mph79%29.86 "HgN/A
7:00 PM81 °FPassing clouds.7 mph74%29.83 "HgN/A
6:00 PM81 °FPassing clouds.3 mph79%29.83 "HgN/A
5:00 PM81 °FScattered clouds.6 mph79%29.80 "HgN/A
4:00 PM81 °FPartly sunny.9 mph79%29.80 "HgN/A
3:00 PM82 °FPartly sunny.14 mph74%29.80 "HgN/A
2:00 PM84 °FPartly sunny.6 mph74%29.83 "HgN/A
1:00 PM86 °FScattered clouds.9 mph66%29.86 "HgN/A
12:00 PM84 °FScattered clouds.6 mph70%29.89 "HgN/A
11:00 AM82 °FScattered clouds.9 mph74%29.92 "HgN/A
10:00 AM81 °FBroken clouds.8 mph79%29.95 "HgN/A
9:00 AM79 °FScattered clouds.7 mph84%29.92 "HgN/A
8:00 AM77 °FBroken clouds.5 mph89%29.92 "HgN/A
7:00 AM75 °FBroken clouds.6 mph89%29.86 "HgN/A
6:00 AM75 °FLight rain. Partly sunny.3 mph89%29.86 "HgN/A
5:00 AM75 °FPassing clouds.3 mph89%29.83 "HgN/A
Weather by CustomWeather, © 2015

See weather overviewHow to use our weather pages